Time,TemperatureF,DewpointF,PressureIn,WindDirection,WindDirectionDegrees,WindSpeedMPH,WindSpeedGustMPH,Humidity,HourlyPrecipIn,Conditions,Clouds,dailyrainin,SoftwareType,DateUTC
2013-10-18 00:01:00,41.0,41.0,29.48,SW,225,0.0,4.0,100,-0.12,,,0.00,Weather View 32 v70,2013-10-18 04:01:00,
2013-10-18 00:02:00,41.0,41.0,29.48,SW,225,0.0,4.0,100,-0.12,,,0.00,Weather View 32 v70,2013-10-18 04:02:00,
2013-10-18 00:07:00,41.0,41.0,29.48,SW,225,0.0,4.0,100,-0.12,,,0.00,Weather View 32 v70,2013-10-18 04:07:00,
2013-10-18 00:12:00,41.0,41.0,29.48,WSW,247,0.0,4.0,100,-0.12,,,0.00,Weather View 32 v70,2013-10-18 04:12:00,
2013-10-18 00:17:00,42.0,42.0,29.47,WSW,247,0.0,4.0,100,-0.12,,,0.00,Weather View 32 v70,2013-10-18 04:17:00,
2013-10-18 00:22:00,42.0,42.0,29.47,SSE,157,0.0,4.0,100,-0.12,,,0.00,Weather View 32 v70,2013-10-18 04:22:00,
2013-10-18 00:27:00,42.0,42.0,29.47,WSW,247,0.0,4.0,100,-0.12,,,0.00,Weather View 32 v70,2013-10-18 04:27:00,
2013-10-18 00:32:00,42.0,42.0,29.47,SSW,202,0.0,4.0,100,-0.12,,,0.00,Weather View 32 v70,2013-10-18 04:32:00,
2013-10-18 00:37:00,42.0,42.0,29.47,SW,225,0.0,6.0,100,-0.12,,,0.00,Weather View 32 v70,2013-10-18 04:37:00,
2013-10-18 00:42:00,42.0,42.0,29.47,SSW,202,0.0,6.0,100,-0.12,,,0.00,Weather View 32 v70,2013-10-18 04:42:00,
2013-10-18 00:47:00,42.0,42.0,29.47,WSW,247,1.0,7.0,100,-0.12,,,0.00,Weather View 32 v70,2013-10-18 04:47:00,
2013-10-18 00:52:00,42.0,42.0,29.47,WSW,247,0.0,7.0,100,-0.12,,,0.00,Weather View 32 v70,2013-10-18 04:52:00,
2013-10-18 00:57:00,42.0,42.0,29.47,WSW,247,0.0,7.0,100,-0.12,,,0.00,Weather View 32 v70,2013-10-18 04:57:00,
2013-10-18 01:02:00,42.0,42.0,29.47,WSW,247,4.0,7.0,100,0.00,,,0.00,Weather View 32 v70,2013-10-18 05:02:00,
2013-10-18 01:07:00,42.0,42.0,29.46,WSW,247,0.0,7.0,100,0.00,,,0.00,Weather View 32 v70,2013-10-18 05:07:00,
2013-10-18 01:12:00,42.0,42.0,29.46,SW,225,0.0,7.0,100,0.00,,,0.00,Weather View 32 v70,2013-10-18 05:12:00,
2013-10-18 01:17:00,42.0,42.0,29.47,WSW,247,0.0,7.0,100,0.00,,,0.00,Weather View 32 v70,2013-10-18 05:17:00,
2013-10-18 01:22:00,42.0,42.0,29.47,SSW,202,1.0,7.0,100,0.00,,,0.00,Weather View 32 v70,2013-10-18 05:22:00,
2013-10-18 01:27:00,42.0,42.0,29.47,SW,225,0.0,7.0,100,0.00,,,0.00,Weather View 32 v70,2013-10-18 05:27:00,
2013-10-18 01:32:00,42.0,42.0,29.47,SW,225,0.0,7.0,100,0.00,,,0.00,Weather View 32 v70,2013-10-18 05:32:00,
2013-10-18 01:37:00,42.0,42.0,29.47,WSW,247,0.0,7.0,100,0.00,,,0.00,Weather View 32 v70,2013-10-18 05:37:00,
2013-10-18 01:42:00,42.0,42.0,29.47,WSW,247,0.0,7.0,100,0.00,,,0.00,Weather View 32 v70,2013-10-18 05:42:00,
2013-10-18 01:47:00,42.0,42.0,29.47,SW,225,0.0,5.0,100,0.00,,,0.00,Weather View 32 v70,2013-10-18 05:47:00,
2013-10-18 01:52:00,42.0,42.0,29.47,WSW,247,0.0,5.0,100,0.00,,,0.00,Weather View 32 v70,2013-10-18 05:52:00,
2013-10-18 01:57:00,42.0,42.0,29.47,SW,225,0.0,5.0,100,0.00,,,0.00,Weather View 32 v70,2013-10-18 05:57:00,
2013-10-18 02:02:00,42.0,42.0,29.47,South,180,0.0,5.0,100,0.00,,,0.00,Weather View 32 v70,2013-10-18 06:02:00,
2013-10-18 02:07:00,42.0,42.0,29.47,SSW,202,0.0,5.0,100,0.00,,,0.00,Weather View 32 v70,2013-10-18 06:07:00,
2013-10-18 02:12:00,42.0,42.0,29.47,WSW,247,0.0,4.0,100,0.00,,,0.00,Weather View 32 v70,2013-10-18 06:12:00,
2013-10-18 02:17:00,42.0,42.0,29.47,WSW,247,0.0,4.0,100,0.00,,,0.00,Weather View 32 v70,2013-10-18 06:17:00,
2013-10-18 02:22:00,42.0,42.0,29.47,SW,225,0.0,4.0,100,0.00,,,0.00,Weather View 32 v70,2013-10-18 06:22:00,
2013-10-18 02:27:00,42.0,42.0,29.47,SW,225,1.0,4.0,100,0.00,,,0.00,Weather View 32 v70,2013-10-18 06:27:00,
2013-10-18 02:32:00,42.0,42.0,29.47,SW,225,0.0,5.0,100,0.00,,,0.00,Weather View 32 v70,2013-10-18 06:32:00,
2013-10-18 02:37:00,42.0,42.0,29.47,WSW,247,0.0,5.0,100,0.00,,,0.00,Weather View 32 v70,2013-10-18 06:37:00,
2013-10-18 02:42:00,42.0,42.0,29.47,WSW,247,0.0,5.0,100,0.00,,,0.00,Weather View 32 v70,2013-10-18 06:42:00,
2013-10-18 02:47:00,42.0,42.0,29.47,WSW,247,0.0,6.0,100,0.00,,,0.00,Weather View 32 v70,2013-10-18 06:47:00,
2013-10-18 02:52:00,42.0,42.0,29.47,SW,225,1.0,6.0,100,0.00,,,0.00,Weather View 32 v70,2013-10-18 06:52:00,
2013-10-18 02:57:00,42.0,42.0,29.47,SW,225,0.0,6.0,100,0.00,,,0.00,Weather View 32 v70,2013-10-18 06:57:00,
2013-10-18 03:02:00,42.0,42.0,29.47,SSW,202,0.0,6.0,100,0.00,,,0.00,Weather View 32 v70,2013-10-18 07:02:00,
2013-10-18 03:07:00,42.0,42.0,29.47,SW,225,3.0,6.0,100,0.00,,,0.00,Weather View 32 v70,2013-10-18 07:07:00,
2013-10-18 03:12:00,42.0,42.0,29.47,WSW,247,0.0,6.0,100,0.00,,,0.00,Weather View 32 v70,2013-10-18 07:12:00,
2013-10-18 03:17:00,42.0,42.0,29.47,WSW,247,0.0,6.0,100,0.00,,,0.00,Weather View 32 v70,2013-10-18 07:17:00,
2013-10-18 03:22:00,42.0,42.0,29.47,South,180,0.0,6.0,100,0.00,,,0.00,Weather View 32 v70,2013-10-18 07:22:00,
2013-10-18 03:27:00,42.0,42.0,29.47,SW,225,0.0,6.0,100,0.00,,,0.00,Weather View 32 v70,2013-10-18 07:27:00,
2013-10-18 03:32:00,42.0,42.0,29.47,SW,225,0.0,7.0,100,0.00,,,0.00,Weather View 32 v70,2013-10-18 07:32:00,
2013-10-18 03:37:00,42.0,42.0,29.47,WSW,247,0.0,7.0,100,0.00,,,0.00,Weather View 32 v70,2013-10-18 07:37:00,
2013-10-18 03:42:00,42.0,42.0,29.47,SW,225,0.0,7.0,100,0.00,,,0.00,Weather View 32 v70,2013-10-18 07:42:00,
2013-10-18 03:47:00,42.0,42.0,29.47,SW,225,0.0,7.0,100,0.00,,,0.00,Weather View 32 v70,2013-10-18 07:47:00,
2013-10-18 03:52:00,42.0,42.0,29.47,SW,225,2.0,7.0,100,0.00,,,0.00,Weather View 32 v70,2013-10-18 07:52:00,
2013-10-18 03:57:00,42.0,42.0,29.47,WSW,247,0.0,7.0,100,0.00,,,0.00,Weather View 32 v70,2013-10-18 07:57:00,
2013-10-18 04:02:00,42.0,42.0,29.47,WSW,247,1.0,7.0,100,0.00,,,0.00,Weather View 32 v70,2013-10-18 08:02:00,
2013-10-18 04:07:00,42.0,42.0,29.46,SSW,202,3.0,7.0,100,0.00,,,0.00,Weather View 32 v70,2013-10-18 08:07:00,
2013-10-18 04:12:00,42.0,42.0,29.46,SSW,202,0.0,7.0,100,0.00,,,0.00,Weather View 32 v70,2013-10-18 08:12:00,
2013-10-18 04:17:00,43.0,43.0,29.47,SW,225,1.0,7.0,100,0.00,,,0.00,Weather View 32 v70,2013-10-18 08:17:00,
2013-10-18 04:22:00,43.0,43.0,29.47,WSW,247,3.0,7.0,100,0.00,,,0.00,Weather View 32 v70,2013-10-18 08:22:00,
2013-10-18 04:27:00,43.0,43.0,29.46,SW,225,0.0,7.0,100,0.00,,,0.00,Weather View 32 v70,2013-10-18 08:27:00,
2013-10-18 04:32:00,42.0,42.0,29.46,SW,225,0.0,6.0,100,0.00,,,0.00,Weather View 32 v70,2013-10-18 08:32:00,
2013-10-18 04:37:00,42.0,42.0,29.46,SW,225,0.0,6.0,100,0.00,,,0.00,Weather View 32 v70,2013-10-18 08:37:00,
2013-10-18 04:42:00,42.0,42.0,29.46,WSW,247,3.0,6.0,100,0.00,,,0.00,Weather View 32 v70,2013-10-18 08:42:00,
2013-10-18 04:47:00,42.0,42.0,29.47,SSW,202,0.0,6.0,100,0.00,,,0.00,Weather View 32 v70,2013-10-18 08:47:00,
2013-10-18 04:52:00,42.0,42.0,29.47,SSW,202,0.0,6.0,100,0.00,,,0.00,Weather View 32 v70,2013-10-18 08:52:00,
2013-10-18 04:57:00,42.0,42.0,29.47,SW,225,0.0,7.0,100,0.00,,,0.00,Weather View 32 v70,2013-10-18 08:57:00,
2013-10-18 05:02:00,43.0,43.0,29.47,WSW,247,1.0,7.0,100,0.00,,,0.00,Weather View 32 v70,2013-10-18 09:02:00,
2013-10-18 05:07:00,43.0,43.0,29.47,SW,225,0.0,8.0,100,0.00,,,0.00,Weather View 32 v70,2013-10-18 09:07:00,
2013-10-18 05:12:00,43.0,43.0,29.47,SW,225,0.0,8.0,100,0.00,,,0.00,Weather View 32 v70,2013-10-18 09:12:00,
2013-10-18 05:17:00,43.0,43.0,29.47,SW,225,4.0,8.0,100,0.00,,,0.00,Weather View 32 v70,2013-10-18 09:17:00,
2013-10-18 05:22:00,42.0,42.0,29.47,SW,225,4.0,8.0,100,0.00,,,0.00,Weather View 32 v70,2013-10-18 09:22:00,
2013-10-18 05:27:00,42.0,42.0,29.47,SW,225,1.0,8.0,100,0.00,,,0.00,Weather View 32 v70,2013-10-18 09:27:00,
2013-10-18 05:32:00,42.0,42.0,29.47,WSW,247,0.0,8.0,100,0.00,,,0.00,Weather View 32 v70,2013-10-18 09:32:00,
2013-10-18 05:37:00,42.0,42.0,29.47,SW,225,1.0,8.0,100,0.00,,,0.00,Weather View 32 v70,2013-10-18 09:37:00,
2013-10-18 05:42:00,42.0,42.0,29.47,SW,225,0.0,8.0,100,0.00,,,0.00,Weather View 32 v70,2013-10-18 09:42:00,
2013-10-18 05:47:00,42.0,42.0,29.47,SW,225,0.0,8.0,100,0.00,,,0.00,Weather View 32 v70,2013-10-18 09:47:00,
2013-10-18 05:52:00,42.0,42.0,29.47,WSW,247,1.0,8.0,100,0.00,,,0.00,Weather View 32 v70,2013-10-18 09:52:00,
2013-10-18 05:57:00,42.0,42.0,29.47,SW,225,0.0,8.0,100,0.00,,,0.00,Weather View 32 v70,2013-10-18 09:57:00,
2013-10-18 06:02:00,42.0,42.0,29.47,WSW,247,4.0,8.0,100,0.00,,,0.00,Weather View 32 v70,2013-10-18 10:02:00,
2013-10-18 06:07:00,42.0,42.0,29.48,SSW,202,0.0,7.0,100,0.00,,,0.00,Weather View 32 v70,2013-10-18 10:07:00,
2013-10-18 06:12:00,42.0,42.0,29.48,SW,225,0.0,7.0,100,0.00,,,0.00,Weather View 32 v70,2013-10-18 10:12:00,
2013-10-18 06:17:00,42.0,42.0,29.48,WSW,247,0.0,7.0,100,0.00,,,0.00,Weather View 32 v70,2013-10-18 10:17:00,
2013-10-18 06:22:00,43.0,43.0,29.48,WSW,247,2.0,7.0,100,0.00,,,0.00,Weather View 32 v70,2013-10-18 10:22:00,
2013-10-18 06:27:00,42.0,42.0,29.48,South,180,0.0,7.0,100,0.00,,,0.00,Weather View 32 v70,2013-10-18 10:27:00,
2013-10-18 06:32:00,42.0,42.0,29.48,WSW,247,0.0,7.0,100,0.00,,,0.00,Weather View 32 v70,2013-10-18 10:32:00,
2013-10-18 06:37:00,42.0,42.0,29.48,SSW,202,0.0,7.0,100,0.00,,,0.00,Weather View 32 v70,2013-10-18 10:37:00,
2013-10-18 06:42:00,42.0,42.0,29.48,SW,225,0.0,7.0,100,0.00,,,0.00,Weather View 32 v70,2013-10-18 10:42:00,
2013-10-18 06:47:00,42.0,42.0,29.47,SW,225,0.0,7.0,100,0.00,,,0.00,Weather View 32 v70,2013-10-18 10:47:00,
2013-10-18 06:52:00,42.0,42.0,29.47,South,180,1.0,7.0,100,0.00,,,0.00,Weather View 32 v70,2013-10-18 10:52:00,
2013-10-18 06:57:00,42.0,42.0,29.47,SSW,202,1.0,7.0,100,0.00,,,0.00,Weather View 32 v70,2013-10-18 10:57:00,
2013-10-18 07:02:00,42.0,42.0,29.47,SW,225,0.0,7.0,100,0.00,,,0.00,Weather View 32 v70,2013-10-18 11:02:00,
2013-10-18 07:07:00,42.0,42.0,29.48,SSW,202,0.0,7.0,100,0.00,,,0.00,Weather View 32 v70,2013-10-18 11:07:00,
2013-10-18 07:12:00,42.0,42.0,29.48,SW,225,0.0,7.0,100,0.00,,,0.00,Weather View 32 v70,2013-10-18 11:12:00,
2013-10-18 07:17:00,43.0,43.0,29.48,SSW,202,0.0,7.0,100,0.00,,,0.00,Weather View 32 v70,2013-10-18 11:17:00,
2013-10-18 07:22:00,43.0,43.0,29.48,WSW,247,0.0,5.0,100,0.00,,,0.00,Weather View 32 v70,2013-10-18 11:22:00,
2013-10-18 07:27:00,43.0,43.0,29.48,WSW,247,0.0,6.0,100,0.00,,,0.00,Weather View 32 v70,2013-10-18 11:27:00,
2013-10-18 07:32:00,43.0,43.0,29.48,SW,225,3.0,6.0,100,0.00,,,0.00,Weather View 32 v70,2013-10-18 11:32:00,
2013-10-18 07:37:00,43.0,43.0,29.48,South,180,0.0,6.0,100,0.00,,,0.00,Weather View 32 v70,2013-10-18 11:37:00,
2013-10-18 07:42:00,43.0,43.0,29.48,SW,225,0.0,6.0,100,0.00,,,0.00,Weather View 32 v70,2013-10-18 11:42:00,
2013-10-18 07:47:00,43.0,43.0,29.48,SSW,202,0.0,9.0,100,0.00,,,0.00,Weather View 32 v70,2013-10-18 11:47:00,
2013-10-18 07:52:00,43.0,43.0,29.48,SSW,202,4.0,9.0,100,0.00,,,0.00,Weather View 32 v70,2013-10-18 11:52:00,
2013-10-18 07:57:00,43.0,43.0,29.48,WSW,247,3.0,9.0,100,0.00,,,0.00,Weather View 32 v70,2013-10-18 11:57:00,
2013-10-18 08:02:00,43.0,43.0,29.48,SW,225,2.0,9.0,100,0.00,,,0.00,Weather View 32 v70,2013-10-18 12:02:00,
2013-10-18 08:07:00,43.0,43.0,29.48,WSW,247,3.0,9.0,100,0.00,,,0.00,Weather View 32 v70,2013-10-18 12:07:00,
2013-10-18 08:12:00,43.0,43.0,29.48,SW,225,1.0,9.0,100,0.00,,,0.00,Weather View 32 v70,2013-10-18 12:12:00,
2013-10-18 08:17:00,43.0,43.0,29.49,WSW,247,0.0,9.0,100,0.00,,,0.00,Weather View 32 v70,2013-10-18 12:17:00,
2013-10-18 08:22:00,43.0,43.0,29.49,SW,225,0.0,9.0,100,0.00,,,0.00,Weather View 32 v70,2013-10-18 12:22:00,
2013-10-18 08:27:00,43.0,43.0,29.49,South,180,3.0,9.0,100,0.00,,,0.00,Weather View 32 v70,2013-10-18 12:27:00,
2013-10-18 08:32:00,44.0,44.0,29.49,SSW,202,1.0,9.0,100,0.00,,,0.00,Weather View 32 v70,2013-10-18 12:32:00,
2013-10-18 08:37:00,44.0,44.0,29.49,SSE,157,3.0,9.0,100,0.00,,,0.00,Weather View 32 v70,2013-10-18 12:37:00,
2013-10-18 08:42:00,44.0,44.0,29.49,SSW,202,1.0,9.0,100,0.00,,,0.00,Weather View 32 v70,2013-10-18 12:42:00,
2013-10-18 08:47:00,45.0,45.0,29.50,SW,225,0.0,7.0,100,0.00,,,0.00,Weather View 32 v70,2013-10-18 12:47:00,
2013-10-18 08:52:00,45.0,45.0,29.50,SSW,202,0.0,10.0,100,0.00,,,0.00,Weather View 32 v70,2013-10-18 12:52:00,
2013-10-18 08:57:00,45.0,45.0,29.50,WSW,247,0.0,10.0,100,0.00,,,0.00,Weather View 32 v70,2013-10-18 12:57:00,
2013-10-18 09:02:00,46.0,46.0,29.50,WSW,247,1.0,10.0,100,0.00,,,0.00,Weather View 32 v70,2013-10-18 13:02:00,
2013-10-18 09:07:00,46.0,46.0,29.50,WSW,247,6.0,10.0,100,0.00,,,0.00,Weather View 32 v70,2013-10-18 13:07:00,
2013-10-18 09:12:00,46.0,46.0,29.50,South,180,1.0,10.0,100,0.00,,,0.00,Weather View 32 v70,2013-10-18 13:12:00,
2013-10-18 09:17:00,47.0,47.0,29.50,SW,225,4.0,10.0,100,0.00,,,0.00,Weather View 32 v70,2013-10-18 13:17:00,
2013-10-18 09:22:00,47.0,47.0,29.50,West,270,4.0,10.0,100,0.00,,,0.00,Weather View 32 v70,2013-10-18 13:22:00,
2013-10-18 09:27:00,47.0,47.0,29.51,WSW,247,9.0,10.0,100,0.00,,,0.00,Weather View 32 v70,2013-10-18 13:27:00,
2013-10-18 09:32:00,48.0,48.0,29.51,WSW,247,2.0,10.0,100,0.00,,,0.00,Weather View 32 v70,2013-10-18 13:32:00,
2013-10-18 09:37:00,48.0,48.0,29.51,WSW,247,0.0,10.0,100,0.00,,,0.00,Weather View 32 v70,2013-10-18 13:37:00,
2013-10-18 09:42:00,49.0,49.0,29.51,SSW,202,3.0,11.0,100,0.00,,,0.00,Weather View 32 v70,2013-10-18 13:42:00,
2013-10-18 09:47:00,49.0,49.0,29.51,SW,225,3.0,11.0,100,0.00,,,0.00,Weather View 32 v70,2013-10-18 13:47:00,
2013-10-18 09:52:00,50.0,50.0,29.51,West,270,0.0,11.0,100,0.00,,,0.00,Weather View 32 v70,2013-10-18 13:52:00,
2013-10-18 09:57:00,50.0,50.0,29.51,WSW,247,6.0,11.0,100,0.00,,,0.00,Weather View 32 v70,2013-10-18 13:57:00,
2013-10-18 10:02:00,50.0,50.0,29.51,SSW,202,9.0,11.0,100,0.00,,,0.00,Weather View 32 v70,2013-10-18 14:02:00,
2013-10-18 10:07:00,51.0,51.0,29.51,SSW,202,3.0,12.0,100,0.00,,,0.00,Weather View 32 v70,2013-10-18 14:07:00,
2013-10-18 10:14:00,51.0,51.0,29.51,WSW,247,2.0,12.0,100,0.00,,,0.00,Weather View 32 v70,2013-10-18 14:14:00,
2013-10-18 10:19:00,52.0,52.0,29.51,SW,225,0.0,12.0,100,0.00,,,0.00,Weather View 32 v70,2013-10-18 14:19:00,
2013-10-18 10:24:00,52.0,52.0,29.52,SSW,202,4.0,12.0,100,0.00,,,0.00,Weather View 32 v70,2013-10-18 14:24:00,
2013-10-18 10:29:00,53.0,53.0,29.52,WSW,247,2.0,12.0,100,0.00,,,0.00,Weather View 32 v70,2013-10-18 14:29:00,
2013-10-18 10:34:00,53.0,53.0,29.51,WSW,247,2.0,12.0,100,0.00,,,0.00,Weather View 32 v70,2013-10-18 14:34:00,
2013-10-18 10:39:00,53.0,53.0,29.51,SW,225,4.0,12.0,100,0.00,,,0.00,Weather View 32 v70,2013-10-18 14:39:00,
2013-10-18 10:44:00,54.0,54.0,29.52,WSW,247,2.0,12.0,100,0.00,,,0.00,Weather View 32 v70,2013-10-18 14:44:00,
2013-10-18 10:49:00,54.0,54.0,29.52,SSW,202,2.0,12.0,100,0.00,,,0.00,Weather View 32 v70,2013-10-18 14:49:00,
2013-10-18 10:54:00,55.0,55.0,29.50,WSW,247,2.0,12.0,100,0.00,,,0.00,Weather View 32 v70,2013-10-18 14:54:00,
2013-10-18 10:59:00,55.0,55.0,29.50,SW,225,3.0,12.0,100,0.00,,,0.00,Weather View 32 v70,2013-10-18 14:59:00,
2013-10-18 11:04:00,55.0,55.0,29.51,SW,225,5.0,12.0,100,0.00,,,0.00,Weather View 32 v70,2013-10-18 15:04:00,
2013-10-18 11:09:00,55.0,55.0,29.51,WSW,247,3.0,12.0,100,0.00,,,0.00,Weather View 32 v70,2013-10-18 15:09:00,
2013-10-18 11:14:00,56.0,56.0,29.51,WSW,247,4.0,12.0,100,0.00,,,0.00,Weather View 32 v70,2013-10-18 15:14:00,
2013-10-18 11:19:00,56.0,56.0,29.51,SSW,202,2.0,12.0,100,0.00,,,0.00,Weather View 32 v70,2013-10-18 15:19:00,
2013-10-18 11:24:00,57.0,57.0,29.50,SW,225,5.0,12.0,100,0.00,,,0.00,Weather View 32 v70,2013-10-18 15:24:00,
2013-10-18 11:29:00,57.0,57.0,29.50,WSW,247,6.0,15.0,100,0.00,,,0.00,Weather View 32 v70,2013-10-18 15:29:00,
2013-10-18 11:34:00,58.0,58.0,29.50,SW,225,3.0,15.0,100,0.00,,,0.00,Weather View 32 v70,2013-10-18 15:34:00,
2013-10-18 11:39:00,58.0,58.0,29.50,WSW,247,3.0,15.0,100,0.00,,,0.00,Weather View 32 v70,2013-10-18 15:39:00,
2013-10-18 11:44:00,58.0,58.0,29.50,WSW,247,8.0,15.0,100,0.00,,,0.00,Weather View 32 v70,2013-10-18 15:44:00,
2013-10-18 11:49:00,58.0,58.0,29.50,SW,225,7.0,15.0,100,0.00,,,0.00,Weather View 32 v70,2013-10-18 15:49:00,
2013-10-18 11:54:00,59.0,59.0,29.50,WSW,247,0.0,15.0,100,0.00,,,0.00,Weather View 32 v70,2013-10-18 15:54:00,
2013-10-18 11:59:00,59.0,59.0,29.50,SW,225,6.0,15.0,100,0.00,,,0.00,Weather View 32 v70,2013-10-18 15:59:00,
2013-10-18 12:04:00,59.0,59.0,29.50,SSW,202,4.0,15.0,100,0.00,,,0.00,Weather View 32 v70,2013-10-18 16:04:00,
2013-10-18 12:09:00,60.0,60.0,29.50,SSW,202,4.0,15.0,100,0.00,,,0.00,Weather View 32 v70,2013-10-18 16:09:00,
2013-10-18 12:14:00,60.0,60.0,29.50,WSW,247,6.0,15.0,100,0.00,,,0.00,Weather View 32 v70,2013-10-18 16:14:00,
2013-10-18 12:19:00,60.0,60.0,29.50,WSW,247,4.0,15.0,100,0.00,,,0.00,Weather View 32 v70,2013-10-18 16:19:00,
2013-10-18 12:24:00,60.0,60.0,29.50,WSW,247,4.0,16.0,100,0.00,,,0.00,Weather View 32 v70,2013-10-18 16:24:00,
2013-10-18 12:29:00,61.0,61.0,29.50,SW,225,10.0,16.0,100,0.00,,,0.00,Weather View 32 v70,2013-10-18 16:29:00,
2013-10-18 12:34:00,61.0,61.0,29.50,SW,225,4.0,16.0,100,0.00,,,0.00,Weather View 32 v70,2013-10-18 16:34:00,
2013-10-18 12:39:00,61.0,61.0,29.50,West,270,9.0,20.0,100,0.00,,,0.00,Weather View 32 v70,2013-10-18 16:39:00,
2013-10-18 12:45:00,61.0,61.0,29.50,WSW,247,12.0,20.0,100,0.00,,,0.00,Weather View 32 v70,2013-10-18 16:45:00,
2013-10-18 12:50:00,61.0,61.0,29.50,SW,225,6.0,20.0,100,0.00,,,0.00,Weather View 32 v70,2013-10-18 16:50:00,
2013-10-18 12:55:00,60.0,60.0,29.50,WSW,247,8.0,20.0,100,0.00,,,0.00,Weather View 32 v70,2013-10-18 16:55:00,
2013-10-18 13:00:00,61.0,61.0,29.50,SW,225,4.0,23.0,100,0.00,,,0.00,Weather View 32 v70,2013-10-18 17:00:00,
2013-10-18 13:05:00,62.0,62.0,29.49,SW,225,14.0,23.0,100,0.00,,,0.00,Weather View 32 v70,2013-10-18 17:05:00,
2013-10-18 13:10:00,62.0,62.0,29.49,WSW,247,6.0,23.0,100,0.00,,,0.00,Weather View 32 v70,2013-10-18 17:10:00,
2013-10-18 13:15:00,62.0,62.0,29.49,West,270,7.0,23.0,100,0.00,,,0.00,Weather View 32 v70,2013-10-18 17:15:00,
2013-10-18 13:20:00,62.0,62.0,29.49,SSW,202,8.0,23.0,100,0.00,,,0.00,Weather View 32 v70,2013-10-18 17:20:00,
2013-10-18 13:25:00,62.0,62.0,29.49,SW,225,4.0,23.0,100,0.00,,,0.00,Weather View 32 v70,2013-10-18 17:25:00,
2013-10-18 13:30:00,63.0,63.0,29.49,SSW,202,6.0,23.0,100,0.00,,,0.00,Weather View 32 v70,2013-10-18 17:30:00,
2013-10-18 13:35:00,63.0,63.0,29.48,West,270,5.0,23.0,100,0.00,,,0.00,Weather View 32 v70,2013-10-18 17:35:00,
2013-10-18 13:40:00,62.0,62.0,29.48,SW,225,4.0,23.0,100,0.00,,,0.00,Weather View 32 v70,2013-10-18 17:40:00,
2013-10-18 13:45:00,63.0,63.0,29.49,SSW,202,2.0,23.0,100,0.00,,,0.00,Weather View 32 v70,2013-10-18 17:45:00,
2013-10-18 13:50:00,63.0,63.0,29.49,West,270,10.0,23.0,100,0.00,,,0.00,Weather View 32 v70,2013-10-18 17:50:00,
2013-10-18 13:55:00,62.0,62.0,29.48,SW,225,10.0,23.0,100,0.00,,,0.00,Weather View 32 v70,2013-10-18 17:55:00,
2013-10-18 14:00:00,62.0,62.0,29.48,SSW,202,5.0,20.0,100,0.00,,,0.00,Weather View 32 v70,2013-10-18 18:00:00,
2013-10-18 14:05:00,61.0,61.0,29.46,West,270,10.0,20.0,100,0.00,,,0.00,Weather View 32 v70,2013-10-18 18:05:00,
2013-10-18 14:10:00,62.0,62.0,29.46,SW,225,5.0,20.0,100,0.00,,,0.00,Weather View 32 v70,2013-10-18 18:10:00,
2013-10-18 14:15:00,63.0,63.0,29.47,West,270,10.0,20.0,100,0.00,,,0.00,Weather View 32 v70,2013-10-18 18:15:00,
2013-10-18 14:20:00,63.0,63.0,29.47,WSW,247,10.0,20.0,100,0.00,,,0.00,Weather View 32 v70,2013-10-18 18:20:00,
2013-10-18 14:25:00,62.0,62.0,29.47,SW,225,10.0,20.0,100,0.00,,,0.00,Weather View 32 v70,2013-10-18 18:25:00,
2013-10-18 14:30:00,62.0,62.0,29.47,SSW,202,8.0,20.0,100,0.00,,,0.00,Weather View 32 v70,2013-10-18 18:30:00,
2013-10-18 14:35:00,62.0,62.0,29.46,West,270,12.0,20.0,100,0.00,,,0.00,Weather View 32 v70,2013-10-18 18:35:00,
2013-10-18 14:40:00,62.0,62.0,29.46,SSW,202,5.0,20.0,100,0.00,,,0.00,Weather View 32 v70,2013-10-18 18:40:00,
2013-10-18 14:45:00,63.0,63.0,29.46,West,270,5.0,18.0,100,0.00,,,0.00,Weather View 32 v70,2013-10-18 18:45:00,
2013-10-18 14:50:00,63.0,63.0,29.46,WSW,247,7.0,19.0,100,0.00,,,0.00,Weather View 32 v70,2013-10-18 18:50:00,
2013-10-18 14:55:00,63.0,63.0,29.45,West,270,10.0,19.0,100,0.00,,,0.00,Weather View 32 v70,2013-10-18 18:55:00,
2013-10-18 15:00:00,63.0,63.0,29.45,West,270,6.0,19.0,100,0.00,,,0.00,Weather View 32 v70,2013-10-18 19:00:00,
2013-10-18 15:05:00,63.0,63.0,29.46,SW,225,11.0,19.0,100,0.00,,,0.00,Weather View 32 v70,2013-10-18 19:05:00,
2013-10-18 15:10:00,63.0,63.0,29.46,WNW,292,8.0,19.0,100,0.00,,,0.00,Weather View 32 v70,2013-10-18 19:10:00,
2013-10-18 15:15:00,63.0,63.0,29.45,SW,225,9.0,19.0,100,0.00,,,0.00,Weather View 32 v70,2013-10-18 19:15:00,
2013-10-18 15:20:00,63.0,63.0,29.45,WSW,247,20.0,20.0,100,0.00,,,0.00,Weather View 32 v70,2013-10-18 19:20:00,
2013-10-18 15:25:00,63.0,63.0,29.45,SW,225,5.0,20.0,100,0.00,,,0.00,Weather View 32 v70,2013-10-18 19:25:00,
2013-10-18 15:30:00,62.0,62.0,29.45,WSW,247,10.0,20.0,100,0.00,,,0.00,Weather View 32 v70,2013-10-18 19:30:00,
2013-10-18 15:35:00,62.0,62.0,29.46,West,270,8.0,20.0,100,0.00,,,0.00,Weather View 32 v70,2013-10-18 19:35:00,
2013-10-18 15:40:00,62.0,62.0,29.46,West,270,2.0,20.0,100,0.00,,,0.00,Weather View 32 v70,2013-10-18 19:40:00,
2013-10-18 15:45:00,63.0,63.0,29.45,WNW,292,7.0,20.0,100,0.00,,,0.00,Weather View 32 v70,2013-10-18 19:45:00,
2013-10-18 15:50:00,63.0,63.0,29.45,WSW,247,7.0,20.0,100,0.00,,,0.00,Weather View 32 v70,2013-10-18 19:50:00,
2013-10-18 15:55:00,63.0,63.0,29.44,SW,225,9.0,20.0,100,0.00,,,0.00,Weather View 32 v70,2013-10-18 19:55:00,
2013-10-18 16:00:00,64.0,64.0,29.44,SSW,202,0.0,20.0,100,0.00,,,0.00,Weather View 32 v70,2013-10-18 20:00:00,
2013-10-18 16:05:00,64.0,64.0,29.46,WSW,247,8.0,20.0,100,0.00,,,0.00,Weather View 32 v70,2013-10-18 20:05:00,
2013-10-18 16:10:00,64.0,64.0,29.46,WSW,247,6.0,20.0,100,0.00,,,0.00,Weather View 32 v70,2013-10-18 20:10:00,
2013-10-18 16:15:00,65.0,65.0,29.45,SW,225,4.0,20.0,100,0.00,,,0.00,Weather View 32 v70,2013-10-18 20:15:00,
2013-10-18 16:20:00,64.0,64.0,29.45,WSW,247,2.0,20.0,100,0.00,,,0.00,Weather View 32 v70,2013-10-18 20:20:00,
2013-10-18 16:25:00,64.0,64.0,29.45,WNW,292,4.0,19.0,100,0.00,,,0.00,Weather View 32 v70,2013-10-18 20:25:00,
2013-10-18 16:30:00,64.0,64.0,29.45,WSW,247,5.0,19.0,100,0.00,,,0.00,Weather View 32 v70,2013-10-18 20:30:00,
2013-10-18 16:35:00,63.0,63.0,29.45,WSW,247,3.0,19.0,100,0.00,,,0.00,Weather View 32 v70,2013-10-18 20:35:00,
2013-10-18 16:40:00,63.0,63.0,29.45,WSW,247,4.0,19.0,100,0.00,,,0.00,Weather View 32 v70,2013-10-18 20:40:00,
2013-10-18 16:45:00,64.0,64.0,29.44,West,270,5.0,19.0,100,0.00,,,0.00,Weather View 32 v70,2013-10-18 20:45:00,
2013-10-18 16:50:00,64.0,64.0,29.44,WSW,247,3.0,19.0,100,0.00,,,0.00,Weather View 32 v70,2013-10-18 20:50:00,
2013-10-18 16:55:00,64.0,64.0,29.44,WSW,247,2.0,19.0,100,0.00,,,0.00,Weather View 32 v70,2013-10-18 20:55:00,
2013-10-18 17:00:00,63.0,63.0,29.44,WSW,247,3.0,16.0,100,0.00,,,0.00,Weather View 32 v70,2013-10-18 21:00:00,
2013-10-18 17:05:00,63.0,63.0,29.45,West,270,4.0,16.0,100,0.00,,,0.00,Weather View 32 v70,2013-10-18 21:05:00,
2013-10-18 17:10:00,63.0,63.0,29.45,West,270,4.0,16.0,100,0.00,,,0.00,Weather View 32 v70,2013-10-18 21:10:00,
2013-10-18 17:15:00,64.0,64.0,29.44,WSW,247,3.0,16.0,100,0.00,,,0.00,Weather View 32 v70,2013-10-18 21:15:00,
2013-10-18 17:20:00,64.0,64.0,29.44,WSW,247,2.0,16.0,100,0.00,,,0.00,Weather View 32 v70,2013-10-18 21:20:00,
2013-10-18 17:25:00,62.0,62.0,29.44,West,270,8.0,16.0,100,0.00,,,0.00,Weather View 32 v70,2013-10-18 21:25:00,
2013-10-18 17:30:00,63.0,63.0,29.44,West,270,3.0,16.0,100,0.00,,,0.00,Weather View 32 v70,2013-10-18 21:30:00,
2013-10-18 17:35:00,63.0,63.0,29.45,WSW,247,3.0,16.0,100,0.00,,,0.00,Weather View 32 v70,2013-10-18 21:35:00,
2013-10-18 17:40:00,63.0,63.0,29.45,SW,225,5.0,16.0,100,0.00,,,0.00,Weather View 32 v70,2013-10-18 21:40:00,
2013-10-18 17:45:00,62.0,62.0,29.45,West,270,0.0,16.0,100,0.00,,,0.00,Weather View 32 v70,2013-10-18 21:45:00,
2013-10-18 17:50:00,62.0,62.0,29.45,SW,225,6.0,16.0,100,0.00,,,0.00,Weather View 32 v70,2013-10-18 21:50:00,
2013-10-18 17:55:00,62.0,62.0,29.45,SW,225,4.0,16.0,100,0.00,,,0.00,Weather View 32 v70,2013-10-18 21:55:00,
2013-10-18 18:00:00,62.0,62.0,29.45,SW,225,4.0,16.0,100,0.00,,,0.00,Weather View 32 v70,2013-10-18 22:00:00,
2013-10-18 18:05:00,62.0,62.0,29.45,WNW,292,4.0,16.0,100,0.00,,,0.00,Weather View 32 v70,2013-10-18 22:05:00,
2013-10-18 18:10:00,62.0,62.0,29.45,SSW,202,7.0,16.0,100,0.00,,,0.00,Weather View 32 v70,2013-10-18 22:10:00,
2013-10-18 18:15:00,62.0,62.0,29.45,SW,225,3.0,16.0,100,0.00,,,0.00,Weather View 32 v70,2013-10-18 22:15:00,
2013-10-18 18:20:00,61.0,61.0,29.45,WSW,247,3.0,16.0,100,0.00,,,0.00,Weather View 32 v70,2013-10-18 22:20:00,
2013-10-18 18:25:00,60.0,60.0,29.46,West,270,5.0,16.0,100,0.00,,,0.00,Weather View 32 v70,2013-10-18 22:25:00,
2013-10-18 18:30:00,60.0,60.0,29.46,WSW,247,4.0,11.0,100,0.00,,,0.00,Weather View 32 v70,2013-10-18 22:30:00,
2013-10-18 18:35:00,60.0,60.0,29.46,SW,225,3.0,11.0,100,0.00,,,0.00,Weather View 32 v70,2013-10-18 22:35:00,
2013-10-18 18:40:00,59.0,59.0,29.46,West,270,4.0,11.0,100,0.00,,,0.00,Weather View 32 v70,2013-10-18 22:40:00,
2013-10-18 18:45:00,59.0,59.0,29.46,WSW,247,0.0,11.0,100,0.00,,,0.00,Weather View 32 v70,2013-10-18 22:45:00,
2013-10-18 18:50:00,58.0,58.0,29.46,WSW,247,2.0,11.0,100,0.00,,,0.00,Weather View 32 v70,2013-10-18 22:50:00,
2013-10-18 18:55:00,58.0,58.0,29.46,West,270,0.0,11.0,100,0.00,,,0.00,Weather View 32 v70,2013-10-18 22:55:00,
2013-10-18 19:00:00,57.0,57.0,29.46,WNW,292,1.0,11.0,100,0.00,,,0.00,Weather View 32 v70,2013-10-18 23:00:00,
2013-10-18 19:05:00,57.0,57.0,29.46,WSW,247,7.0,11.0,100,0.00,,,0.00,Weather View 32 v70,2013-10-18 23:05:00,
2013-10-18 19:10:00,56.0,56.0,29.46,WSW,247,0.0,15.0,100,0.00,,,0.00,Weather View 32 v70,2013-10-18 23:10:00,
2013-10-18 19:15:00,55.0,55.0,29.48,SW,225,0.0,15.0,100,0.00,,,0.00,Weather View 32 v70,2013-10-18 23:15:00,
2013-10-18 19:20:00,55.0,55.0,29.48,NNE,22,0.0,15.0,100,0.00,,,0.00,Weather View 32 v70,2013-10-18 23:20:00,
2013-10-18 19:25:00,54.0,54.0,29.48,NW,315,1.0,15.0,100,0.00,,,0.00,Weather View 32 v70,2013-10-18 23:25:00,
2013-10-18 19:30:00,53.0,53.0,29.48,South,180,0.0,15.0,100,0.00,,,0.00,Weather View 32 v70,2013-10-18 23:30:00,
2013-10-18 19:35:00,52.0,52.0,29.49,WNW,292,4.0,15.0,100,0.00,,,0.00,Weather View 32 v70,2013-10-18 23:35:00,
2013-10-18 19:40:00,52.0,52.0,29.49,SW,225,0.0,15.0,100,0.00,,,0.00,Weather View 32 v70,2013-10-18 23:40:00,
2013-10-18 19:45:00,51.0,51.0,29.50,NNW,337,0.0,15.0,100,0.00,,,0.00,Weather View 32 v70,2013-10-18 23:45:00,
2013-10-18 19:50:00,51.0,51.0,29.50,NE,45,0.0,15.0,100,0.00,,,0.00,Weather View 32 v70,2013-10-18 23:50:00,
2013-10-18 19:55:00,51.0,51.0,29.50,West,270,0.0,15.0,100,0.00,,,0.00,Weather View 32 v70,2013-10-18 23:55:00,
2013-10-18 20:00:00,50.0,50.0,29.50,West,270,0.0,15.0,100,0.00,,,0.00,Weather View 32 v70,2013-10-19 00:00:00,
2013-10-18 20:05:00,50.0,50.0,29.50,West,270,0.0,15.0,100,0.00,,,0.00,Weather View 32 v70,2013-10-19 00:05:00,
2013-10-18 20:10:00,49.0,49.0,29.50,North,360,0.0,9.0,100,0.00,,,0.00,Weather View 32 v70,2013-10-19 00:10:00,
2013-10-18 20:15:00,49.0,49.0,29.50,NNW,337,0.0,9.0,100,0.00,,,0.00,Weather View 32 v70,2013-10-19 00:15:00,
2013-10-18 20:20:00,49.0,49.0,29.50,WNW,292,0.0,9.0,100,0.00,,,0.00,Weather View 32 v70,2013-10-19 00:20:00,
2013-10-18 20:25:00,49.0,49.0,29.50,NW,315,0.0,9.0,100,0.00,,,0.00,Weather View 32 v70,2013-10-19 00:25:00,
2013-10-18 20:30:00,48.0,48.0,29.50,WNW,292,1.0,8.0,100,0.00,,,0.00,Weather View 32 v70,2013-10-19 00:30:00,
2013-10-18 20:35:00,48.0,48.0,29.50,WSW,247,0.0,7.0,100,0.00,,,0.00,Weather View 32 v70,2013-10-19 00:35:00,
2013-10-18 20:40:00,48.0,48.0,29.50,NW,315,0.0,7.0,100,0.00,,,0.00,Weather View 32 v70,2013-10-19 00:40:00,
2013-10-18 20:45:00,48.0,48.0,29.51,WNW,292,0.0,7.0,100,0.00,,,0.00,Weather View 32 v70,2013-10-19 00:45:00,
2013-10-18 20:50:00,47.0,47.0,29.51,NW,315,0.0,7.0,100,0.00,,,0.00,Weather View 32 v70,2013-10-19 00:50:00,
2013-10-18 20:55:00,47.0,47.0,29.51,WNW,292,2.0,7.0,100,0.00,,,0.00,Weather View 32 v70,2013-10-19 00:55:00,
2013-10-18 21:00:00,47.0,47.0,29.51,West,270,0.0,7.0,100,0.00,,,0.00,Weather View 32 v70,2013-10-19 01:00:00,
2013-10-18 21:05:00,47.0,47.0,29.52,West,270,0.0,7.0,100,0.00,,,0.00,Weather View 32 v70,2013-10-19 01:05:00,
2013-10-18 21:10:00,47.0,47.0,29.52,North,360,0.0,7.0,100,0.00,,,0.00,Weather View 32 v70,2013-10-19 01:10:00,
2013-10-18 21:15:00,46.0,46.0,29.52,West,270,4.0,9.0,100,0.00,,,0.00,Weather View 32 v70,2013-10-19 01:15:00,
2013-10-18 21:20:00,46.0,46.0,29.52,NW,315,0.0,9.0,100,0.00,,,0.00,Weather View 32 v70,2013-10-19 01:20:00,
2013-10-18 21:25:00,46.0,46.0,29.51,NNW,337,0.0,9.0,100,0.00,,,0.00,Weather View 32 v70,2013-10-19 01:25:00,
2013-10-18 21:30:00,46.0,46.0,29.51,North,360,0.0,9.0,100,0.00,,,0.00,Weather View 32 v70,2013-10-19 01:30:00,
2013-10-18 21:35:00,45.0,45.0,29.51,NNW,337,0.0,9.0,100,0.00,,,0.00,Weather View 32 v70,2013-10-19 01:35:00,
2013-10-18 21:40:00,45.0,45.0,29.51,NNW,337,0.0,9.0,100,0.00,,,0.00,Weather View 32 v70,2013-10-19 01:40:00,
2013-10-18 21:45:00,45.0,45.0,29.52,NE,45,0.0,9.0,100,0.00,,,0.00,Weather View 32 v70,2013-10-19 01:45:00,
2013-10-18 21:51:00,44.0,44.0,29.52,NNW,337,1.0,9.0,100,0.00,,,0.00,Weather View 32 v70,2013-10-19 01:51:00,
2013-10-18 21:56:00,44.0,44.0,29.51,NW,315,0.0,9.0,100,0.00,,,0.00,Weather View 32 v70,2013-10-19 01:56:00,
2013-10-18 22:01:00,44.0,44.0,29.51,West,270,0.0,9.0,100,0.00,,,0.00,Weather View 32 v70,2013-10-19 02:01:00,
2013-10-18 22:06:00,44.0,44.0,29.52,WSW,247,0.0,9.0,100,0.00,,,0.00,Weather View 32 v70,2013-10-19 02:06:00,
2013-10-18 22:11:00,44.0,44.0,29.52,WNW,292,1.0,9.0,100,0.00,,,0.00,Weather View 32 v70,2013-10-19 02:11:00,
2013-10-18 22:16:00,44.0,44.0,29.52,WNW,292,0.0,9.0,100,0.00,,,0.00,Weather View 32 v70,2013-10-19 02:16:00,
2013-10-18 22:21:00,43.0,43.0,29.52,WNW,292,0.0,7.0,100,0.00,,,0.00,Weather View 32 v70,2013-10-19 02:21:00,
2013-10-18 22:26:00,43.0,43.0,29.53,NNW,337,0.0,7.0,100,0.00,,,0.00,Weather View 32 v70,2013-10-19 02:26:00,
2013-10-18 22:31:00,43.0,43.0,29.53,NNW,337,0.0,7.0,100,0.00,,,0.00,Weather View 32 v70,2013-10-19 02:31:00,
2013-10-18 22:36:00,43.0,43.0,29.52,NNW,337,0.0,7.0,100,0.00,,,0.00,Weather View 32 v70,2013-10-19 02:36:00,
2013-10-18 22:41:00,42.0,42.0,29.52,NW,315,0.0,7.0,100,0.00,,,0.00,Weather View 32 v70,2013-10-19 02:41:00,
2013-10-18 22:46:00,42.0,42.0,29.53,NW,315,0.0,7.0,100,0.00,,,0.00,Weather View 32 v70,2013-10-19 02:46:00,
2013-10-18 22:51:00,42.0,42.0,29.53,WNW,292,0.0,7.0,100,0.00,,,0.00,Weather View 32 v70,2013-10-19 02:51:00,
2013-10-18 22:56:00,42.0,42.0,29.53,WNW,292,0.0,4.0,100,0.00,,,0.00,Weather View 32 v70,2013-10-19 02:56:00,
2013-10-18 23:01:00,42.0,42.0,29.53,WNW,292,0.0,3.0,100,0.00,,,0.00,Weather View 32 v70,2013-10-19 03:01:00,
2013-10-18 23:06:00,41.0,41.0,29.52,WNW,292,0.0,3.0,100,0.00,,,0.00,Weather View 32 v70,2013-10-19 03:06:00,
2013-10-18 23:11:00,41.0,41.0,29.52,WNW,292,0.0,1.0,100,0.00,,,0.00,Weather View 32 v70,2013-10-19 03:11:00,
2013-10-18 23:16:00,41.0,41.0,29.52,WNW,292,0.0,1.0,100,0.00,,,0.00,Weather View 32 v70,2013-10-19 03:16:00,
2013-10-18 23:21:00,41.0,41.0,29.52,WNW,292,0.0,1.0,100,0.00,,,0.00,Weather View 32 v70,2013-10-19 03:21:00,
2013-10-18 23:26:00,41.0,41.0,29.52,WNW,292,0.0,1.0,100,0.00,,,0.00,Weather View 32 v70,2013-10-19 03:26:00,
2013-10-18 23:31:00,40.0,40.0,29.52,WNW,292,0.0,1.0,100,0.00,,,0.00,Weather View 32 v70,2013-10-19 03:31:00,
2013-10-18 23:36:00,40.0,40.0,29.52,WNW,292,0.0,1.0,100,0.00,,,0.00,Weather View 32 v70,2013-10-19 03:36:00,
2013-10-18 23:41:00,40.0,40.0,29.52,WNW,292,0.0,1.0,100,0.00,,,0.00,Weather View 32 v70,2013-10-19 03:41:00,
2013-10-18 23:46:00,40.0,40.0,29.51,WNW,292,0.0,1.0,100,0.00,,,0.00,Weather View 32 v70,2013-10-19 03:46:00,
2013-10-18 23:51:00,40.0,40.0,29.51,WNW,292,0.0,1.0,100,0.00,,,0.00,Weather View 32 v70,2013-10-19 03:51:00,
2013-10-18 23:56:00,40.0,40.0,29.51,WNW,292,0.0,0.0,100,0.00,,,0.00,Weather View 32 v70,2013-10-19 03:56:00,